SCP
0 0 0 0 0 0 0 0 0 0 0 0 0 0 0 0 0 0 0 0 0 0 0 0 0 0 0 0 0 0 0 0 0 0 0 0 0 0 0 0 0 0 0 0 0 0 0 0 0
0 0 0 0 0 0 0 0 0 0 0 0 0 0 0 0 0 0 0 0 0 0 0 0 0 0 0 0 0 0 0 0 0 0 0 0 0 0 0 0 0 0 0 0 0 0 0 0 0
0 0 0 0 0 0 0 0 0 0 0 0 0 0 0 0 0 0 0 0 0 0 0 0 0 0 0 0 0 0 0 0 0 0 0 0 0 0 0 0 0 0 0 0 0 0 0 0 0
0 0 0 0 0 0 0 0 0 0 0 0 0 0 0 0 0 0 0 0 0 0 0 0 0 0 0 0 0 0 0 0 0 0 0 0 0 0 0 0 0 0 0 0 0 0 0 0 0
0 0 0 0 0 0 0 0 0 0 0 0 0 0 0 0 0 0 0 0 0 0 0 0 0 0 0 0 0 0 0 0 0 0 0 0 0 0 0 0 0 0 0 0 0 0 0 0 0
0 0 0 0 0 0 0 0 0 0 0 0 0 0 0 0 0 0 0 0 0 0 0 0 0 0 0 0 0 0 0 0 0 0 0 0 0 0 0 0 0 0 0 0 0 0 0 0 0
0 0 0 0 0 0 0 0 0 0 0 0 0 0 0 0 0 0 0 0 0 0 0 0 0 0 0 0 0 0 0 0 0 0 0 0 0 0 0 0 0 0 0 0 0 0 0 0 0
0 0 0 0 0 0 0 0 0 0 0 0 0 0 0 0 0 0 0 0 0 0 0 0 0 0 0 0 0 0 0 0 0 0 0 0 0 0 0 0 0 0 0 0 0 0 0 0 0
0 0 0 0 0 0 0 0 0 0 0 0 0 0 0 0 0 0 0 0 0 0 0 0 0 0 0 0 0 0 0 0 0 0 0 0 0 0 0 0 0 0 0 0 0 0 0 0 0
0 0 0 0 0 0 0 0 0 0 0 0 0 0 0 0 0 0 0 0 0 0 0 0 0 0 0 0 0 0 0 0 0 0 0 0 0 0 0 0 0 0 0 0 0 0 0 0 0
0 0 0 0 0 0 0 0 0 0 0 0 0 0 0 0 0 0 0 0 0 0 0 0 0 0 0 0 0 0 0 0 0 0 0 0 0 0 0 0 0 0 0 0 0 0 0 0 0
0 0 0 0 0 0 0 0 0 0 0 0 0 0 0 0 0 0 0 0 0 0 0 0 0 0 0 0 0 0 0 0 0 0 0 0 0 0 0 0 0 0 0 0 0 0 0 0 0
0 0 0 0 0 0 0 0 0 0 0 0 0 0 0 0 0 0 0 0 0 0 0 0 0 0 0 0 0 0 0 0 0 0 0 0 0 0 0 0 0 0 0 0 0 0 0 0 0
0 0 0 0 0 0 0 0 0 0 0 0 0 0 0 0 0 0 0 0 0 0 0 0 0 0 0 0 0 0 0 0 0 0 0 0 0 0 0 0 0 0 0 0 0 0 0 0 0
0 0 0 0 0 0 0 0 0 0 0 0 0 0 0 0 0 0 0 0 0 0 0 0 0 0 0 0 0 0 0 0 0 0 0 0 0 0 0 0 0 0 0 0 0 0 0 0 0
0 0 0 0 0 0 0 0 0 0 0 0 0 0 0 0 0 0 0 0 0 0 0 0 0 0 0 0 0 0 0 0 0 0 0 0 0 0 0 0 0 0 0 0 0 0 0 0 0
0 0 0 0 0 0 0 0 0 0 0 0 0 0 0 0 0 0 0 0 0 0 0 0 0 0 0 0 0 0 0 0 0 0 0 0 0 0 0 0 0 0 0 0 0 0 0 0 0
0 0 0 0 0 0 0 0 0 0 0 0 0 0 0 0 0 0 0 0 0 0 0 0 0 0 0 0 0 0 0 0 0 0 0 0 0 0 0 0 0 0 0 0 0 0 0 0 0
0 0 0 0 0 0 0 0 0 0 0 0 0 0 0 0 0 0 0 0 0 0 0 0 0 0 0 0 0 0 0 0 0 0 0 0 0 0 0 0 0 0 0 0 0 0 0 0 0
0 0 0 0 0 0 0 0 0 0 0 0 0 0 0 0 0 0 0 0 0 0 0 0 0 0 0 0 0 0 0 0 0 0 0 0 0 0 0 0 0 0 0 0 0 0 0 0 0
0 0 0 0 0 0 0 0 0 0 0 0 0 0 0 0 0 0 0 0 0 0 0 0 0 0 0 0 0 0 0 0 0 0 0 0 0 0 0 0 0 0 0 0 0 0 0 0 0
0 0 0 0 0 0 0 0 0 0 0 0 0 0 0 0 0 0 0 0 0 0 0 0 0 0 0 0 0 0 0 0 0 0 0 0 0 0 0 0 0 0 0 0 0 0 0 0 0
0 0 0 0 0 0 0 0 0 0 0 0 0 0 0 0 0 0 0 0 0 0 0 0 0 0 0 0 0 0 0 0 0 0 0 0 0 0 0 0 0 0 0 0 0 0 0 0 0
0 0 0 0 0 0 0 0 0 0 0 0 0 0 0 0 0 0 0 0 0 0 0 0 0 0 0 0 0 0 0 0 0 0 0 0 0 0 0 0 0 0 0 0 0 0 0 0 0
0 0 0 0 0 0 0 0 0 0 0 0 0 0 0 0 0 0 0 0 0 0 0 0 0 0 0 0 0 0 0 0 0 0 0 0 0 0 0 0 0 0 0 0 0 0 0 0 0
0 0 0 0 0 0 0 0 0 0 0 0 0 0 0 0 0 0 0 0 0 0 0 0 0 0 0 0 0 0 0 0 0 0 0 0 0 0 0 0 0 0 0 0 0 0 0 0 0
0 0 0 0 0 0 0 0 0 0 0 0 0 0 0 0 0 0 0 0 0 0 0 0 0 0 0 0 0 0 0 0 0 0 0 0 0 0 0 0 0 0 0 0 0 0 0 0 0
0 0 0 0 0 0 0 0 0 0 0 0 0 0 0 0 0 0 0 0 0 0 0 0 0 0 0 0 0 0 0 0 0 0 0 0 0 0 0 0 0 0 0 0 0 0 0 0 1
0 0 0 0 0 0 0 0 0 0 0 0 0 0 0 0 0 0 0 0 0 0 0 0 0 0 0 0 0 0 0 0 0 0 0 0 0 0 0 0 0 0 0 0 0 0 0 0 1
0 0 0 0 0 0 0 0 0 0 0 0 0 0 0 0 0 0 0 0 0 0 0 0 0 0 0 0 0 0 0 0 0 0 0 0 0 0 0 0 0 0 0 0 0 0 0 0 0
Wind_Speed
11 9 5 5 6 1 8 8 6 6 6 7 6 5 6 7 7 6 5 4 3 3 3 5 4 4 4 4 4 4 5 6 7 8 8 8 7 7 7 7 6 7 7 7 7 7 7 7 7
8 6 5 6 3 5 9 8 9 9 6 4 4 4 5 6 7 5 4 3 2 2 3 4 5 4 4 4 3 3 4 6 7 7 7 8 8 7 7 6 6 6 6 7 7 7 7 7 7
6 6 6 3 4 8 8 8 8 7 5 4 4 5 6 6 5 4 4 2 2 3 3 6 4 4 3 3 3 3 4 6 7 7 7 7 7 7 6 5 5 6 6 6 6 6 6 6 6
5 6 6 1 9 9 7 6 5 5 5 5 4 5 6 6 4 4 4 2 2 3 3 7 4 3 2 2 3 3 5 6 7 7 7 7 6 6 5 5 6 6 6 6 6 5 5 6 6
6 6 2 5 10 8 6 6 4 5 5 6 5 6 7 6 5 5 4 2 3 3 3 6 5 3 2 2 2 3 5 7 6 6 7 6 6 5 5 4 5 5 5 5 5 5 5 5 6
5 4 2 7 9 7 6 5 5 5 6 5 4 5 6 5 4 4 4 3 3 3 3 5 6 4 2 2 2 3 6 6 5 5 5 5 5 5 4 4 4 4 4 4 5 4 4 5 5
5 3 5 6 7 8 6 4 4 5 6 6 3 5 6 5 4 4 4 3 4 4 3 2 3 5 5 4 3 4 5 5 5 5 4 4 4 4 4 3 3 3 3 3 3 4 4 4 5
5 3 4 6 6 7 5 4 4 4 6 6 3 4 5 4 3 3 4 4 4 4 3 3 3 2 1 4 7 5 5 5 5 4 4 4 5 6 5 4 4 3 2 2 3 3 4 4 5
6 3 5 7 6 6 4 3 4 3 6 5 5 6 7 6 4 4 4 4 4 4 4 4 3 2 2 3 5 6 7 6 5 5 5 4 2 3 5 5 4 3 2 1 2 3 4 6 7
5 2 6 5 5 4 3 3 3 3 5 4 5 7 7 6 4 4 3 4 5 4 4 4 4 3 3 3 3 2 3 4 3 2 2 2 2 1 1 6 5 3 2 2 2 4 6 7 4
3 3 3 2 3 2 2 3 2 1 3 3 4 6 6 5 4 4 3 3 4 4 4 4 4 4 4 3 3 2 2 2 3 3 2 2 1 1 1 1 3 3 3 2 2 4 2 2 1
2 1 2 1 1 1 1 3 3 3 4 5 5 6 5 4 4 4 3 3 4 4 4 4 4 4 4 4 3 2 2 2 2 3 2 2 1 1 1 1 0 0 0 0 1 1 1 1 1
2 1 1 1 1 1 2 3 3 4 4 6 6 6 5 4 4 4 3 3 4 3 3 4 3 3 3 3 2 2 2 2 3 2 2 1 1 1 1 1 1 1 1 1 1 1 0 1 2
2 1 1 1 3 3 3 4 3 4 6 6 6 5 4 3 3 3 3 3 3 3 3 3 3 4 3 2 2 2 2 2 2 2 3 2 2 2 1 1 1 1 1 1 1 1 1 1 1
3 3 3 2 2 2 3 4 3 6 6 6 5 4 4 3 3 2 3 2 2 2 2 3 3 4 4 3 2 2 2 3 2 2 3 3 2 2 1 1 1 1 1 1 1 1 1 1 1
6 6 3 4 2 3 6 2 5 6 6 6 5 4 4 3 3 2 2 2 2 2 3 3 3 4 4 3 2 2 3 3 3 2 3 3 3 2 1 1 1 2 1 1 0 1 1 1 1
6 4 2 3 3 3 5 0 6 6 6 5 5 5 5 4 3 2 2 3 3 3 4 4 4 4 4 3 3 3 3 3 2 2 2 3 3 2 1 2 2 1 1 1 1 1 1 1 1
2 3 3 2 2 4 5 1 4 6 6 5 5 5 5 4 4 4 4 4 4 4 4 4 4 4 3 3 3 2 3 2 2 2 3 3 2 3 2 2 2 2 1 1 1 1 1 1 1
5 6 4 2 1 5 5 4 3 6 6 6 5 5 5 4 4 5 5 5 5 4 4 4 4 4 2 2 2 2 2 2 2 2 3 2 2 2 2 2 1 1 1 1 1 1 0 0 1
7 7 4 2 1 5 5 5 4 5 7 6 5 5 4 4 5 6 6 5 5 4 4 4 4 4 3 2 2 1 1 1 2 2 2 2 2 2 1 1 1 1 1 1 1 1 2 1 1
8 7 5 4 3 6 6 6 6 6 7 6 6 5 4 5 5 7 7 5 5 5 4 4 4 3 3 2 2 2 1 1 1 1 2 2 2 2 2 2 2 2 2 1 1 2 2 2 1
7 5 6 6 7 4 5 6 3 6 7 8 7 6 5 5 6 6 6 6 6 5 5 4 4 3 3 3 2 2 1 1 1 1 1 1 1 1 2 2 2 2 2 2 2 1 3 2 2
4 3 6 7 8 8 6 7 1 5 6 7 8 7 6 6 6 6 6 7 6 6 5 5 4 4 3 3 3 2 1 1 1 1 2 1 1 1 2 2 2 2 2 2 3 3 3 2 3
4 6 7 9 8 8 4 7 2 3 3 5 8 7 7 7 6 6 6 6 6 6 6 5 5 4 3 3 3 2 1 1 1 1 1 0 1 1 2 2 2 2 2 2 2 3 2 2 3
10 8 6 7 7 5 2 6 2 2 2 3 6 8 8 7 6 6 6 7 6 6 6 6 5 5 4 4 3 3 2 2 1 0 0 1 1 1 2 2 2 2 2 2 2 2 3 2 2
10 11 8 6 5 3 5 5 1 4 2 3 5 7 8 7 7 6 7 7 6 7 7 6 6 5 5 4 3 2 2 1 1 0 1 1 1 2 2 2 2 2 2 2 2 2 2 2 2
9 9 8 9 8 8 4 3 3 4 3 4 6 7 8 8 7 6 6 7 7 7 8 7 7 6 5 4 4 3 2 1 0 0 1 1 1 1 2 2 2 2 2 2 3 2 3 3 3
7 6 7 8 7 8 6 6 2 4 4 5 7 7 7 8 7 7 6 6 6 7 7 8 7 6 5 5 4 3 3 2 1 1 1 1 1 1 1 1 2 2 2 2 3 2 2 3 2
9 9 8 7 7 9 6 2 3 1 2 4 5 6 7 8 7 7 6 6 6 6 7 8 8 7 6 5 4 3 3 3 2 1 1 0 1 1 1 1 2 2 2 2 2 3 3 3 3
8 9 9 8 7 8 8 1 5 1 2 3 4 6 6 6 6 7 7 7 7 6 6 7 7 7 6 5 4 4 3 2 2 2 1 1 1 1 1 1 1 2 2 2 3 3 3 3 3
Wind_Direction
183 186 207 232 234 171 53 46 42 46 47 46 42 33 34 26 16 38 61 65 43 69 107 146 150 161 164 169 162 165 170 168 168 168 166 167 168 169 169 170 170 169 171 171 170 172 174 177 181
182 185 227 240 285 59 57 41 45 46 51 57 52 46 51 52 43 63 76 60 42 65 94 98 123 154 161 166 167 174 172 171 168 168 169 169 169 168 170 170 170 171 177 180 177 175 175 181 182
187 221 256 259 37 45 49 42 47 57 60 46 49 46 39 40 46 54 70 79 59 65 75 92 118 142 158 167 174 183 173 165 162 162 163 163 164 167 168 167 169 175 178 176 177 182 182 182 182
216 225 234 338 62 54 48 45 46 54 64 49 50 71 67 44 38 68 91 83 72 71 74 95 107 125 147 167 182 186 173 157 153 152 151 154 157 159 161 167 168 173 179 182 182 188 194 195 193
240 257 222 77 66 62 59 51 50 52 56 57 54 77 73 60 64 87 101 87 67 73 77 96 104 115 136 158 178 171 164 156 152 152 155 158 157 157 159 162 169 177 182 187 191 195 199 196 194
250 258 31 61 68 69 63 57 57 55 68 72 65 76 78 80 76 87 88 73 57 59 70 99 131 133 125 142 145 138 142 141 146 149 151 159 165 164 164 155 164 170 176 184 192 198 202 200 197
295 340 43 49 65 71 57 42 43 49 59 58 47 75 89 84 79 85 84 77 61 53 48 72 118 141 154 149 132 126 133 133 137 142 147 154 162 165 155 157 149 145 155 174 184 198 198 204 207
296 291 60 56 52 64 63 55 50 36 62 59 30 59 86 98 103 96 89 71 57 48 45 69 83 74 130 145 142 145 139 136 140 145 149 162 176 170 163 165 135 144 157 177 185 194 209 212 211
263 275 46 38 37 55 62 71 84 78 88 79 57 53 84 113 119 103 96 86 66 50 49 58 67 60 62 77 115 151 155 148 163 156 158 185 173 149 161 116 119 123 128 185 202 207 217 219 204
261 345 41 27 18 29 54 56 97 133 105 94 93 84 100 121 125 106 91 83 69 51 55 61 54 49 56 68 88 110 121 116 118 97 118 126 108 131 113 123 138 141 159 183 194 225 223 231 201
276 349 22 32 15 6 52 84 92 110 93 92 107 113 119 130 132 119 98 78 72 63 55 60 70 53 43 62 70 73 76 90 100 95 102 103 91 104 107 126 147 155 182 193 172 218 233 227 209
257 327 330 360 356 324 87 106 104 67 65 82 109 124 130 132 127 119 109 95 85 77 70 58 67 77 59 50 58 70 69 72 73 91 74 77 81 64 70 64 38 193 158 160 257 266 281 265 217
245 303 349 24 119 113 130 112 104 102 102 106 120 130 133 132 122 117 109 99 90 87 81 76 66 67 72 74 52 68 63 56 72 65 75 55 79 70 55 39 7 327 332 207 243 277 330 257 222
322 279 196 136 133 150 152 129 135 122 134 133 140 142 142 137 129 125 126 110 102 95 87 88 98 98 93 88 77 66 61 76 61 62 60 38 43 44 43 43 5 346 327 352 315 323 313 298 259
238 224 181 155 164 162 201 151 128 132 150 152 157 157 157 159 152 143 133 124 108 103 97 107 120 109 104 91 77 67 60 63 57 56 60 43 39 48 41 46 1 4 4 11 327 345 316 284 238
220 226 207 140 176 183 245 134 125 150 167 166 170 173 176 173 176 158 149 143 128 117 113 111 109 111 106 95 80 69 54 56 54 51 60 57 43 40 33 38 29 33 17 4 10 304 291 345 331
210 238 254 153 175 213 245 153 129 167 184 179 181 186 189 179 179 170 167 150 135 126 124 122 114 114 107 103 102 87 78 68 61 63 54 55 43 37 30 48 35 3 24 7 331 29 316 9 0
258 267 257 247 170 239 248 238 159 180 200 196 188 189 194 191 176 161 155 141 135 130 127 126 126 116 124 123 116 101 82 75 67 64 56 44 42 42 13 58 36 349 25 6 2 9 344 318 317
281 274 273 281 246 252 257 258 213 193 201 204 195 193 189 187 160 152 152 146 140 135 132 128 123 119 128 119 116 114 96 75 64 62 54 44 34 37 25 24 45 345 27 357 344 322 177 259 320
254 263 264 222 210 265 268 262 227 205 207 208 203 198 190 175 156 155 156 155 153 145 143 142 135 126 132 120 119 103 80 86 78 61 63 35 34 20 30 26 339 13 3 21 354 330 310 327 307
242 257 266 270 233 237 267 245 206 200 201 204 206 200 188 178 171 161 163 163 161 156 153 141 137 139 133 134 137 122 136 147 102 83 75 46 24 14 7 11 351 347 326 8 331 317 300 299 295
241 250 261 250 253 253 265 285 194 188 198 199 199 191 181 170 167 164 163 165 169 162 152 145 142 142 140 146 133 136 138 103 69 57 60 51 33 17 10 6 356 340 334 344 305 331 299 295 297
258 250 246 251 262 267 242 268 189 166 201 194 190 186 174 167 164 163 164 167 170 162 156 150 147 148 149 152 151 167 151 113 91 78 80 36 62 35 15 5 353 340 333 345 335 326 315 314 314
210 211 225 236 250 253 258 270 266 149 205 182 178 177 171 164 162 160 159 162 168 166 161 153 153 157 161 161 153 164 145 118 84 47 36 4 72 51 33 2 356 334 342 343 321 314 314 322 326
219 231 233 229 229 245 178 256 291 82 136 187 176 172 170 167 165 163 160 162 166 168 164 162 163 168 170 166 167 168 169 170 167 244 66 332 19 44 30 3 352 343 342 335 325 317 325 320 311
224 245 258 271 271 263 199 249 67 94 124 166 171 166 168 170 167 165 163 162 164 169 171 169 170 172 170 164 162 164 186 203 163 53 336 1 4 23 21 4 353 347 339 337 332 317 319 327 307
224 235 267 271 271 270 247 222 170 144 165 167 166 167 169 170 165 162 159 159 164 167 170 172 172 171 168 164 164 166 176 196 130 152 255 15 17 17 21 8 357 351 351 343 323 332 326 321 301
256 241 234 248 266 266 255 243 226 164 171 175 175 175 169 168 166 163 160 158 162 164 163 166 167 169 170 172 180 167 172 173 182 214 41 21 19 13 4 5 356 349 348 341 320 321 340 321 315
204 218 242 255 262 271 272 264 77 146 182 189 177 173 173 173 169 167 166 161 162 162 160 163 166 168 171 173 174 175 174 170 170 172 166 100 37 13 356 358 351 341 345 343 335 330 334 324 316
241 240 237 244 249 260 274 277 98 111 163 176 168 166 166 172 170 166 165 163 162 162 162 164 168 169 169 169 171 168 166 171 170 149 139 120 77 33 23 4 350 335 357 346 336 329 332 324 322